Location: Buckeye Ditch
(40.9104°N, 122.9517°W)
Time: 14:02:38
(UTC+00:00)

S-56A Canister/Altair - All Passes

Search period start: 18 May 2025 00:00
Search period end: 28 May 2025 00:00
Orbit: 633 x 2485 km, 38.9° (Epoch: 17 May)

Date Brightness Start Highest point End Pass type
(mag) Time Alt. Az. Time Alt. Az. Time Alt. Az.
18 May - 01:28:10 10° W 01:32:54 57° SSW 01:37:15 10° ESE daylight
18 May - 03:32:37 10° WSW 03:35:48 19° SSW 03:39:13 10° SSE daylight
18 May - 18:44:58 10° SSE 18:47:34 11° SE 18:49:56 10° SE daylight
18 May - 20:44:15 10° SW 20:51:29 34° SSE 20:56:41 10° E daylight
18 May - 22:48:37 10° WSW 22:55:08 65° S 22:59:53 10° E daylight
19 May - 00:53:26 10° W 00:58:30 62° S 01:02:52 10° ESE daylight
19 May - 02:57:54 10° W 03:01:25 23° SSW 03:05:03 10° SSE daylight
19 May - 18:12:08 10° SSE 18:12:47 10° SE 18:13:26 10° SE daylight
19 May - 20:09:13 10° SSW 20:16:50 31° SSE 20:22:18 10° E daylight
19 May - 22:13:31 10° WSW 22:20:36 62° S 22:25:36 10° E daylight
20 May - 00:18:35 10° W 00:24:05 67° S 00:28:31 10° ESE daylight
20 May - 02:23:11 10° W 02:27:03 27° SSW 02:30:50 10° SSE daylight
20 May - 19:34:10 10° SSW 19:42:07 30° SSE 19:47:52 10° E daylight
20 May - 21:38:19 10° WSW 21:46:01 60° SSE 21:51:19 10° E daylight
20 May - 23:43:38 10° W 23:49:38 71° S 23:54:13 10° ESE daylight
21 May - 01:48:25 10° W 01:52:41 32° SSW 01:56:37 10° SE daylight
21 May - 18:59:07 10° SSW 19:07:21 28° SSE 19:13:22 10° E daylight
21 May - 21:03:02 10° WSW 21:11:24 57° SSE 21:17:02 10° E daylight
21 May - 23:08:34 10° W 23:15:08 73° S 23:19:56 10° E daylight
22 May - 01:13:35 10° W 01:18:19 37° SSW 01:22:25 10° SE daylight
22 May - 18:24:07 10° SSW 18:32:31 26° SSE 18:38:47 10° E daylight
22 May - 20:27:43 10° SW 20:36:43 54° SSE 20:42:44 10° E daylight
22 May - 22:33:22 10° W 22:40:37 75° S 22:45:39 10° E daylight
23 May - 00:38:41 10° W 00:43:56 44° SSW 00:48:13 10° SE daylight
23 May - 02:45:47 10° SW 02:46:28 10° SW 02:47:08 10° SSW daylight
23 May - 17:49:11 10° SSW 17:57:38 24° SSE 18:04:06 10° E daylight
23 May - 19:52:20 10° SW 20:01:58 51° SSE 20:08:24 10° E daylight
23 May - 21:58:05 10° W 22:06:01 75° S 22:11:22 10° E daylight
24 May - 00:03:41 10° W 00:09:31 51° SSW 00:14:01 10° ESE daylight
24 May - 02:09:46 10° WSW 02:12:06 14° SW 02:14:19 10° S daylight
24 May - 17:14:19 10° S 17:22:42 22° SE 17:29:18 10° E daylight
24 May - 19:16:56 10° SW 19:27:10 49° SSE 19:34:01 10° E daylight
24 May - 21:22:42 10° WSW 21:31:22 75° S 21:37:06 10° E daylight
24 May - 23:28:35 10° W 23:35:04 58° SSW 23:39:48 10° ESE daylight
25 May - 01:34:25 10° WSW 01:37:44 17° SW 01:40:45 10° S daylight
25 May - 16:39:36 10° S 16:47:44 20° SE 16:54:20 10° ESE daylight
25 May - 18:41:31 10° SW 18:52:17 46° SSE 18:59:36 10° E daylight
25 May - 20:47:14 10° WSW 20:56:40 73° S 21:02:48 10° E daylight
25 May - 22:53:23 10° W 23:00:33 65° SSW 23:05:34 10° ESE daylight
26 May - 00:59:12 10° W 01:03:24 22° SW 01:06:58 10° SSE daylight
26 May - 16:05:04 10° S 16:12:44 18° SE 16:19:10 10° ESE daylight
26 May - 18:06:08 10° SW 18:17:21 43° SSE 18:25:07 10° E daylight
26 May - 20:11:40 10° WSW 20:21:53 72° S 20:28:29 10° E daylight
26 May - 22:18:05 10° W 22:25:59 70° S 22:31:20 10° ESE daylight
27 May - 00:24:00 10° W 00:29:02 28° SSW 00:33:04 10° SSE daylight
27 May - 15:30:47 10° S 15:37:42 16° SE 15:43:42 10° ESE daylight
27 May - 17:30:47 10° SW 17:42:20 41° SSE 17:50:33 10° E daylight
27 May - 19:36:04 10° WSW 19:47:02 70° SSE 19:54:08 10° E daylight
27 May - 21:42:39 10° W 21:51:21 74° S 21:57:05 10° ESE daylight
27 May - 23:48:46 10° W 23:54:38 34° SSW 23:59:05 10° SE daylight
